Airport details for: LPMA (Portugal)

Metar

LPMA 270830Z 02013KT 340V040 9999 FEW015 28/12 Q1017

General details

ICAO: LPMA
IATA: FNC
Name (city): Madeira
Major:
Country: Portugal
vACC: vACC Portugal
Description:

Madeira Airport, formerly known as Santa Catarina Airport (and informally known as Funchal Airport), is an international airport in the civil parish of Santa Catarina, municipality of Santa Cruz, in the Portuguese archipelago of the Madeira.

The airport was once infamous for its short runway which, surrounded by high mountains and the ocean, made it a tricky landing for even the most experienced of pilots. It's innovative solution allowed Funchal to receive the Outstanding Structure Award in 2004, although it is still considered one of the most dangerous airports in the world.

Scenery links:
FS9 scenery: Download
FSX/P3D scenery: Download
XP scenery: Download
Elevation: 191 ft.
Transition altitude: 5000 ft.
MSA: 9100 ft.
Latitude: 32.694167
Longitude: -16.778056
LPMA Charts
LPMA Notams
LPMA Online stations

Runways

Number Course Length Elevation Lat Lon ILS ILS freq ILS FAC GP
05 51° 9124ft / 2781 m 146ft 32.689931 -16.78375 - - 3.0°
23 231° 9124ft / 2781 m 191ft 32.705842 -16.76515 - - 3.0°